"Time","Temp","Dewpoint","Humidity","Pressure","Direction","Speed","Gust","Precip","PrecipRate"
"00:04:58","63.6","58","82","29.82","210","4.6","12","0.00","0.00"
"00:09:57","63.6","58.2","82.8","29.82","235","5.2","8.4","0.00","0.00"
"00:14:57","63.6","58.3","83","29.82","216","5.7","12","0.00","0.00"
"00:19:56","63.7","58.4","83","29.82","219","5.1","12","0.00","0.00"
"00:24:58","63.7","58.4","83","29.82","213","5","15.6","0.00","0.00"
"00:29:57","63.6","58.3","83","29.82","210","5.9","16.1","0.00","0.00"
"00:34:59","63.6","58.3","83","29.82","214","5.3","12","0.00","0.00"
"00:39:57","63.6","58.3","83","29.82","215","5.9","16.1","0.00","0.00"
"00:44:59","63.5","58.2","83.1","29.82","216","4.9","8.4","0.00","0.00"
"00:49:58","63.3","58.3","83.8","29.82","205","6.1","12","0.00","0.00"
"00:54:56","63.2","58.3","84","29.82","230","5.3","13.2","0.00","0.00"
"00:59:58","63.2","58.3","84","29.84","230","5.7","12.7","0.00","0.00"
"01:04:58","63.2","58.3","84","29.84","219","3.6","10.4","0.00","0.00"
"01:09:57","63","58.1","84","29.84","219","4.8","9.6","0.00","0.00"
"01:14:59","62.8","58","84.3","29.84","207","4.1","8.4","0.00","0.00"
"01:19:57","62.8","58.1","84.8","29.84","232","5.3","15","0.00","0.00"
"01:24:59","62.9","58.2","84.8","29.84","248","6.1","8.4","0.00","0.00"
"01:29:58","62.9","58.1","84.5","29.85","237","4.6","8.1","0.00","0.00"
"01:34:56","62.8","58.2","85","29.85","245","4","7.2","0.00","0.00"
"01:39:59","62.6","58","85","29.85","234","4.1","8.4","0.00","0.00"
"01:44:57","62.5","57.9","85","29.85","234","3.7","7.2","0.00","0.00"
"01:49:59","62.4","57.8","85","29.85","238","2.7","4.8","0.00","0.00"
"01:54:58","62.2","57.6","85.1","29.85","244","2.9","6","0.00","0.00"
"01:59:57","62.1","57.8","85.8","29.86","262","3","6","0.00","0.00"
"02:04:56","62","57.7","85.8","29.86","244","2.9","4.8","0.00","0.00"
"02:09:56","61.8","57.6","86","29.86","260","1.1","4.6","0.00","0.00"
"02:14:58","61.8","57.6","86","29.86","243","0.7","3.6","0.00","0.00"
"02:19:57","61.6","57.4","86","29.86","235","1.3","3.6","0.00","0.00"
"02:24:56","61.5","57.4","86.5","29.86","231","1.5","4.8","0.00","0.00"
"02:29:59","61.3","57.4","87","29.86","231","0.2","2.4","0.00","0.00"
"02:34:58","61.2","57.3","87","29.86","231","0","0","0.00","0.00"
"02:39:57","61","57.1","87","29.86","231","0","0","0.00","0.00"
"02:44:56","60.7","56.9","87.4","29.87","231","0","0","0.00","0.00"
"02:49:59","60.3","56.7","88.2","29.87","231","0","0","0.00","0.00"
"02:54:58","59.9","56.6","88.8","29.87","231","0","0","0.00","0.00"
"02:59:56","59.6","56.4","89.2","29.87","231","0.6","2.4","0.00","0.00"
"03:04:58","59.1","56.1","89.6","29.87","226","1.3","2.4","0.00","0.00"
"03:09:58","58.8","55.9","90.2","29.87","202","0.4","2.4","0.00","0.00"
"03:14:57","58.4","55.5","90","29.87","202","0.1","1.2","0.00","0.00"
"03:19:59","58","55.3","90.6","29.87","202","0","1.2","0.00","0.00"
"03:24:58","57.7","55.1","91","29.87","202","0","0","0.00","0.00"
"03:29:57","57.3","54.7","91","29.87","202","0","0","0.00","0.00"
"03:34:56","57","54.8","92.2","29.86","202","0","1.2","0.00","0.00"
"03:39:56","56.8","54.8","93","29.86","202","0","0","0.00","0.00"
"03:44:58","56.5","54.5","93","29.86","202","0","0","0.00","0.00"
"03:49:57","56.1","53.8","92.1","29.85","202","0","0","0.00","0.00"
"03:54:56","55.9","54","93.5","29.85","202","0.2","2.4","0.00","0.00"
"03:59:58","55.9","54.3","94.5","29.86","202","0","1.2","0.00","0.00"
"04:04:58","55.5","53.6","93.3","29.86","202","0","0","0.00","0.00"
"04:09:58","55","52.9","92.7","29.86","202","0","0","0.00","0.00"
"04:14:57","54.7","52.7","93","29.87","202","0","0","0.00","0.00"
"04:19:56","54.4","52.6","93.6","29.87","202","0","0","0.00","0.00"
"04:24:59","54.3","52.7","94.6","29.87","202","0","0","0.00","0.00"
"04:29:57","54.3","52.9","95","29.87","202","0","0","0.00","0.00"
"04:34:56","54.2","52.8","95","29.87","202","0","0","0.00","0.00"
"04:39:59","53.9","52.5","95","29.87","202","0","0","0.00","0.00"
"04:44:58","53.4","51.9","94.5","29.87","202","0","0","0.00","0.00"
"04:49:56","53.2","51.8","95","29.87","202","0","0","0.00","0.00"
"04:54:55","53.3","52.1","95.6","29.87","202","0","0","0.00","0.00"
"04:59:58","53.4","52.3","95.9","29.87","202","0","0","0.00","0.00"
"05:04:58","52.9","51.5","95","29.87","202","0","0","0.00","0.00"
"05:09:58","52.5","51.1","95","29.87","202","0","0","0.00","0.00"
"05:14:58","52.3","51.1","95.5","29.87","202","0","0","0.00","0.00"
"05:19:59","52.1","51","96","29.87","202","0","0","0.00","0.00"
"05:24:58","51.9","50.7","95.5","29.87","202","0","0","0.00","0.00"
"05:29:56","51.7","50.6","96","29.87","202","0","0","0.00","0.00"
"05:34:59","51.5","50.4","96","29.86","202","0","0","0.00","0.00"
"05:39:58","51.4","50.3","96","29.86","202","0","0","0.00","0.00"
"05:44:57","51.4","50.3","96","29.86","202","0","0","0.00","0.00"
"05:49:56","51.1","50","96","29.86","202","0","0","0.00","0.00"
"05:54:58","50.8","49.7","96","29.86","202","0","0","0.00","0.00"
"05:59:57","50.6","49.5","96","29.86","202","0","0","0.00","0.00"
"06:04:57","50.8","50","96.8","29.86","203","0","0","0.00","0.00"
"06:09:58","51","50","96.4","29.86","203","0","0","0.00","0.00"
"06:14:57","50.8","49.8","96.4","29.87","203","0.5","2.4","0.00","0.00"
"06:19:59","50.8","50","97","29.87","203","1.9","2.4","0.00","0.00"
"06:24:58","51","50.2","97","29.87","203","1.4","2.4","0.00","0.00"
"06:29:56","51","50.2","97","29.88","203","0.7","2.4","0.00","0.00"
"06:34:59","50.7","49.7","96.2","29.88","203","0","1.2","0.00","0.00"
"06:39:58","50.1","49","96","29.88","203","0.1","1.2","0.00","0.00"
"06:44:57","49.9","48.9","96.3","29.88","203","0","0","0.00","0.00"
"06:49:56","50.1","49.3","97","29.88","203","0","1.2","0.00","0.00"
"06:54:59","50.3","49.5","97","29.88","203","0.1","1.2","0.00","0.00"
"06:59:58","50.5","49.7","97","29.88","203","0","0","0.00","0.00"
"07:04:58","50.3","49.5","97","29.88","203","0","0","0.00","0.00"
"07:09:57","50","49.1","96.8","29.88","203","0","0","0.00","0.00"
"07:14:56","49.8","48.7","96","29.88","203","0","0","0.00","0.00"
"07:19:59","49.6","48.8","96.9","29.88","203","0","0","0.00","0.00"
"07:24:58","49.4","48.5","96.8","29.88","203","0","0","0.00","0.00"
"07:29:57","49.2","48.2","96.3","29.88","203","0","0","0.00","0.00"
"07:34:56","49.3","48.5","97","29.87","203","0","0","0.00","0.00"
"07:39:59","49.5","48.7","97","29.87","204","0.2","1.2","0.00","0.00"
"07:44:57","49.5","48.7","97","29.87","204","0","1.2","0.00","0.00"
"07:49:56","49.4","48.6","97","29.87","204","1.3","2.4","0.00","0.00"
"07:54:58","49.6","48.8","97","29.87","204","1.3","2.4","0.00","0.00"
"07:59:58","49.9","49.1","97","29.88","204","0.9","2.4","0.00","0.00"
"08:04:58","50.1","49.3","97","29.88","204","0.2","1.2","0.00","0.00"
"08:09:57","50","49.2","97","29.88","204","0","0","0.00","0.00"
"08:14:59","49.8","49","97","29.88","204","0","0","0.00","0.00"
"08:19:59","49.6","48.8","97","29.88","204","0","1.2","0.00","0.00"
"08:24:58","49.6","48.8","97","29.88","204","0","1.2","0.00","0.00"
"08:29:56","49.6","48.8","97","29.89","204","0","0","0.00","0.00"
"08:34:58","49.8","49","97","29.89","204","0","0","0.00","0.00"
"08:39:57","50","49.2","97","29.89","204","0","0","0.00","0.00"
"08:44:56","50.5","49.9","97.7","29.89","204","0","0","0.00","0.00"
"08:49:58","51.2","50.7","98","29.88","204","0.1","1.2","0.00","0.00"
"08:54:56","51.8","51.3","98","29.88","204","0","0","0.00","0.00"
"08:59:59","51.9","51.3","97.9","29.88","204","0","0","0.00","0.00"
"09:04:58","51.8","51","97","29.88","204","0","0","0.00","0.00"
"09:09:58","51.9","51.1","97","29.88","204","0","0","0.00","0.00"
"09:14:57","52.2","51.7","98","29.89","204","0","0","0.00","0.00"
"09:19:59","52.7","52.2","98","29.89","204","0.1","1.2","0.00","0.00"
"09:24:57","53.3","52.8","98","29.89","204","0","1.2","0.00","0.00"
"09:29:56","53.7","53.1","98","29.90","204","0.1","1.2","0.00","0.00"
"09:34:58","53.8","53.2","98","29.90","204","0","0","0.00","0.00"
"09:39:56","53.8","53.1","97.4","29.90","204","0","0","0.00","0.00"
"09:44:59","54","53.2","97.2","29.91","204","0","0","0.00","0.00"
"09:49:57","54.2","53.4","97","29.91","204","0","0","0.00","0.00"
"09:54:59","54.6","53.9","97.5","29.91","204","0","0","0.00","0.00"
"09:59:57","55.1","54.5","98","29.91","204","0","0","0.00","0.00"
"10:04:57","55.7","55.1","98","29.91","204","0","0","0.00","0.00"
"10:09:57","56.3","55.7","98","29.91","192","0.2","2.4","0.00","0.00"
"10:14:59","56.9","56.3","98","29.91","192","0","0","0.00","0.00"
"10:19:58","57.4","56.6","97.3","29.90","192","0","0","0.00","0.00"
"10:24:56","58","57.2","97","29.90","192","0.7","2.4","0.00","0.00"
"10:29:58","58.6","57.3","95.1","29.90","184","1.8","4.8","0.00","0.00"
"10:34:56","59.3","57.4","93.1","29.90","194","2.3","4.8","0.00","0.00"
"10:39:59","59.9","57.5","91.6","29.90","183","1.5","6","0.00","0.00"
"10:44:57","60.3","57.7","90.7","29.90","186","2.9","7.2","0.00","0.00"
"10:49:58","60.7","57.8","90.2","29.88","171","2.5","6","0.00","0.00"
"10:54:56","61.1","57.8","89.1","29.88","198","3.8","8.4","0.00","0.00"
"10:59:58","61.3","57.7","88","29.88","193","5.5","13.2","0.00","0.00"
"11:04:57","61.6","57.8","87.4","29.88","191","4.5","16.1","0.00","0.00"
"11:09:56","61.7","57.8","87","29.88","179","4.3","11.5","0.00","0.00"
"11:14:58","61.7","57.8","87","29.88","206","3.1","7.2","0.00","0.00"
"11:19:57","61.8","57.9","87","29.87","205","2.2","6.9","0.00","0.00"
"11:24:59","61.8","57.9","87","29.87","175","3","9.6","0.00","0.00"
"11:29:57","61.8","57.8","86.7","29.87","196","3.5","9.2","0.00","0.00"
"11:34:59","61.9","57.9","86.9","29.87","200","3.2","7.2","0.00","0.00"
"11:39:57","61.8","57.8","86.5","29.87","152","1.9","6.9","0.00","0.00"
"11:44:59","61.8","57.8","86.6","29.87","173","2.5","8.4","0.00","0.00"
"11:49:57","61.9","57.9","86.8","29.85","200","2.7","7.2","0.00","0.00"
"11:54:59","61.9","58","87","29.85","213","1.9","4.6","0.00","0.00"
"11:59:56","62","58.1","87","29.85","214","2.2","4.8","0.00","0.00"
"12:04:56","62.1","58.1","86.7","29.85","198","3.2","6","0.00","0.00"
"12:09:59","62.3","58.1","86.2","29.85","213","3.9","9.6","0.00","0.00"
"12:14:56","62.4","58.2","86","29.85","192","3.7","8.4","0.00","0.00"
"12:19:58","62.6","58.4","86","29.85","188","4.6","8.4","0.00","0.00"
"12:24:56","62.8","58.4","85.8","29.85","195","3.7","8.4","0.00","0.00"
"12:29:58","62.9","58.3","85","29.85","189","4.6","10.8","0.00","0.00"
"12:34:56","63.1","58.5","85","29.84","175","4.1","8.1","0.00","0.00"
"12:39:59","63.1","58.5","85","29.84","198","4.1","10.8","0.00","0.00"
"12:44:57","63.2","58.6","85","29.84","210","4.9","10.8","0.00","0.00"
"12:49:59","63.3","58.6","84.8","29.82","179","2.3","6","0.00","0.00"
"12:54:57","63.4","58.6","84.4","29.82","205","3.7","12","0.00","0.00"
"12:59:59","63.5","58.6","84.2","29.82","205","2.6","4.8","0.00","0.00"
"13:04:58","63.5","58.6","84","29.82","196","2.1","6","0.00","0.00"
"13:09:57","63.5","58.6","84","29.82","207","3.1","8.4","0.00","0.00"
"13:14:56","63.4","58.5","84","29.82","192","3.3","7.2","0.00","0.00"
"13:19:58","63.4","58.6","84.3","29.81","196","3.2","6","0.00","0.00"
"13:24:56","63.4","58.6","84.1","29.81","198","4","8.4","0.00","0.00"
"13:29:58","63.5","58.8","84.9","29.81","195","3.4","8.4","0.00","0.00"
"13:34:56","63.6","58.9","84.9","29.81","179","1.9","8.1","0.00","0.00"
"13:39:58","63.7","59","84.7","29.81","157","2","6","0.00","0.00"
"13:44:55","63.7","59.1","85","29.81","154","1.9","7.2","0.00","0.00"
"13:49:58","63.8","59.2","85","29.79","205","3.9","7.2","0.00","0.00"
"13:54:56","63.8","59.2","85","29.79","173","4.4","13.2","0.00","0.00"
"13:59:57","63.8","59.2","85","29.80","183","5.1","12","0.00","0.00"
"14:04:57","63.8","59.2","85","29.80","208","5.6","12","0.00","0.00"
"14:09:59","63.8","59.2","85","29.80","181","1.9","6","0.00","0.00"
"14:14:57","63.8","59.2","85","29.80","154","3.6","8.4","0.00","0.00"
"14:19:59","63.8","59.2","85","29.80","189","3.6","16.8","0.00","0.00"
"14:24:57","63.8","59.2","85","29.80","183","5.3","17.3","0.00","0.00"
"14:29:58","63.8","59.2","85.1","29.80","193","6.4","16.1","0.00","0.00"
"14:34:56","63.7","59.4","86","29.79","198","5","16.1","0.00","0.00"
"14:39:58","63.6","59.3","86","29.79","205","5.6","15","0.00","0.00"
"14:44:56","63.5","59.2","86","29.79","195","5.4","12","0.00","0.00"
"14:49:58","63.5","59.2","86","29.79","170","4.5","11.5","0.00","0.00"
"14:54:56","63.5","59.2","86","29.79","161","3.2","8.4","0.00","0.00"
"14:59:58","63.5","59.3","86.2","29.79","177","4.3","13.2","0.00","0.00"
"15:04:57","63.6","59.3","86","29.78","183","4.7","12.7","0.00","0.00"
"15:09:56","63.6","59.6","86.7","29.78","158","2.6","10.8","0.00","0.00"
"15:14:58","63.6","59.4","86.2","29.78","146","3.4","10.4","0.00","0.00"
"15:19:56","63.6","59.6","86.7","29.77","153","2.9","8.4","0.00","0.00"
"15:24:58","63.5","59.6","87","29.77","145","3","7.2","0.00","0.00"
"15:29:56","63.4","59.5","87","29.77","161","3.2","8.4","0.00","0.00"
"15:34:58","63.4","59.5","87","29.76","161","3.3","8.1","0.00","0.00"
"15:39:56","63.4","59.5","87","29.76","191","3.4","8.4","0.00","0.00"
"15:44:58","63.4","59.5","87","29.78","191","3.5","10.8","0.00","0.00"
"15:49:56","63.4","59.5","87","29.78","187","3.2","7.2","0.00","0.00"
"15:54:58","63.4","59.5","87","29.78","193","2.5","6.9","0.00","0.00"
"15:59:56","63.3","59.4","87","29.78","151","2.3","6","0.00","0.00"
"16:04:56","63.3","59.4","87","29.77","187","2.8","7.2","0.00","0.00"
"16:09:59","63.2","59.4","87.5","29.77","169","2.6","6.9","0.00","0.00"
"16:14:57","63.1","59.5","88","29.77","164","2.4","6","0.00","0.00"
"16:19:59","63.1","59.5","88","29.77","153","1.8","6","0.00","0.00"
"16:24:57","62.9","59.3","88","29.77","139","2.8","6","0.00","0.00"
"16:29:59","62.8","59.2","88","29.77","137","2.3","6","0.00","0.00"
"16:34:57","62.6","59.2","88.5","29.77","141","1.5","12","0.00","0.00"
"16:39:59","62.5","59.2","89","29.77","169","1.4","11.5","0.00","0.00"
"16:44:58","62.4","59.1","89","29.77","174","1.7","6","0.00","0.00"
"16:49:56","62.4","59.1","89","29.77","181","2.3","5.8","0.00","0.00"
"16:54:59","62.2","58.9","89","29.77","182","2.5","6","0.00","0.00"
"16:59:57","62.1","58.9","89.4","29.77","139","2.8","7.2","0.00","0.00"
"17:04:57","62","58.9","89.7","29.77","165","3.1","8.4","0.00","0.00"
"17:09:56","62.1","59.1","90","29.77","160","3.2","7.2","0.00","0.00"
"17:14:58","62.2","59.2","90","29.78","166","1.9","6","0.00","0.00"
"17:19:59","62.2","59.1","89.5","29.78","157","1.1","4.8","0.00","0.00"
"17:24:59","62.2","59.1","89.8","29.78","143","1.1","4.8","0.00","0.00"
"17:29:57","62.1","59","89.8","29.79","175","1.3","4.8","0.00","0.00"
"17:34:56","62.1","59.1","90","29.79","197","4.4","12","0.00","0.00"
"17:39:59","62.2","59","89.3","29.79","189","3.2","8.4","0.00","0.00"
"17:44:57","62.2","58.9","89","29.79","181","2.4","6","0.00","0.00"
"17:49:56","62.2","58.9","89","29.78","154","2.4","5.8","0.00","0.00"
"17:54:59","62.3","59","89","29.78","176","3.2","4.8","0.00","0.00"
"17:59:58","62.2","58.9","89","29.78","195","2","6","0.00","0.00"
"18:04:58","62.2","58.9","89.1","29.78","211","2.2","6","0.00","0.00"
"18:09:57","62.2","59.1","89.6","29.78","169","3","10.8","0.00","0.00"
"18:14:57","62.2","59.2","90","29.78","141","1.9","7.2","0.00","0.00"
"18:19:56","62.2","59.1","89.6","29.77","152","1.4","4.8","0.00","0.00"
"18:24:59","62.2","59.2","90","29.77","178","2.7","6","0.00","0.00"
"18:29:56","62.1","59.1","90","29.77","173","1.7","7.2","0.00","0.00"
"18:34:56","62","59","90","29.77","182","2.8","5.8","0.00","0.00"
"18:39:58","62","59","90","29.77","182","2.6","9.6","0.00","0.00"
"18:44:57","62","59","90","29.78","199","4","7.2","0.00","0.00"
"18:49:59","62","59","90","29.78","202","5","15","0.00","0.00"
"18:54:57","62","59","90","29.78","213","2.8","6","0.00","0.00"
"18:59:55","62","59","90","29.78","184","2.3","5.8","0.00","0.00"
"19:04:57","62","59","90","29.78","207","2.9","7.2","0.00","0.00"
"19:09:56","62","59","90","29.78","207","4.3","10.8","0.00","0.00"
"19:14:58","62","59","90","29.79","205","4.7","10.4","0.00","0.00"
"19:19:57","62.1","59.1","90","29.79","200","3.5","13.2","0.00","0.00"
"19:24:59","62.1","59.1","90","29.79","191","5.2","12.7","0.00","0.00"
"19:29:57","62.1","59.1","90","29.79","208","6.6","17.3","0.00","0.00"
"19:34:59","62.2","59.2","90","29.78","205","5.1","11.5","0.00","0.00"
"19:39:58","62.2","59.2","90","29.78","194","3.7","8.1","0.00","0.00"
"19:44:56","62.1","59.1","90","29.78","210","4.3","14.4","0.00","0.00"
"19:49:58","62","59","90","29.78","208","3.7","9.6","0.00","0.00"
"19:54:56","61.9","58.9","90","29.78","206","3.9","9.2","0.00","0.00"
"19:59:58","61.7","58.7","90.2","29.78","211","4.2","8.4","0.00","0.00"
"20:04:58","61.5","58.6","90.5","29.78","208","4.3","8.4","0.00","0.00"
"20:09:57","61.3","58.7","91","29.78","206","4","10.8","0.00","0.00"
"20:14:59","61.3","58.7","91","29.78","220","4.3","10.4","0.00","0.00"
"20:19:58","61.2","58.6","91","29.78","198","3.4","7.2","0.00","0.00"
"20:24:56","61.1","58.7","91.6","29.78","186","4","8.4","0.00","0.00"
"20:29:57","61.1","58.7","91.7","29.78","200","3.3","7.2","0.00","0.00"
"20:34:56","61.2","58.9","92","29.78","189","4.9","12","0.00","0.00"
"20:39:59","61.1","58.7","91.7","29.78","205","4.9","12","0.00","0.00"
"20:44:58","60.9","58.4","91.5","29.78","193","3.2","7.2","0.00","0.00"
"20:49:57","60.6","58.3","92","29.78","192","3.3","7.2","0.00","0.00"
"20:54:59","60.4","58.1","92","29.78","199","3.3","7.2","0.00","0.00"
"20:59:57","60.2","58.2","92.9","29.79","197","4.1","10.8","0.00","0.00"
"21:04:57","60.1","57.9","92.5","29.79","199","3.7","8.4","0.00","0.00"
"21:09:56","59.9","57.9","93","29.79","206","4.9","10.8","0.00","0.00"
"21:14:58","59.9","57.9","93","29.80","205","4.8","9.6","0.00","0.00"
"21:19:56","59.8","57.8","93","29.80","201","4.6","8.4","0.00","0.00"
"21:24:58","59.8","57.8","93","29.80","192","4","8.4","0.00","0.00"
"21:29:56","59.7","57.7","93","29.80","203","3.4","8.4","0.00","0.00"
"21:34:59","59.5","57.6","93.4","29.80","198","3.8","7.2","0.00","0.00"
"21:39:58","59.3","57.6","93.8","29.80","198","3.5","8.4","0.00","0.00"
"21:44:56","59.2","57.4","93.8","29.81","199","2.9","4.8","0.00","0.00"
"21:49:58","59.1","57.4","94","29.81","229","2.1","6","0.00","0.00"
"21:54:56","59","57.3","94.2","29.81","221","2.4","6","0.00","0.00"
"21:59:59","58.9","57.2","94","29.81","208","2.5","7.2","0.00","0.00"
"22:04:59","58.7","57","94","29.81","205","1.8","3.6","0.00","0.00"
"22:09:58","58.5","56.8","94","29.81","205","1.6","3.6","0.00","0.00"
"22:14:57","58.4","56.7","94.2","29.81","204","1.3","3.6","0.00","0.00"
"22:19:56","58.2","56.8","95","29.81","196","1.2","3.5","0.00","0.00"
"22:24:59","58","56.5","94.7","29.81","282","2.9","6","0.00","0.00"
"22:29:57","58.1","56.9","95.6","29.83","308","2.1","5.8","0.00","0.00"
"22:34:56","58.3","57","95.3","29.83","317","2.6","6","0.00","0.00"
"22:39:59","58.5","57.3","95.9","29.83","11","1.3","5.8","0.00","0.00"
"22:44:57","58.7","57.4","95.4","29.84","11","0.1","2.3","0.00","0.00"
"22:49:56","58.8","57.4","95","29.84","11","1.1","3.6","0.00","0.00"
"22:54:58","58.8","57.4","95","29.84","11","1.3","3.6","0.00","0.00"
"22:59:56","58.9","57.5","95","29.85","11","1.2","3.5","0.00","0.00"
"23:04:56","59.1","57.7","95","29.85","11","2","4.8","0.00","0.00"
"23:09:59","59.3","57.9","95","29.85","13","1.1","3.6","0.00","0.00"
"23:14:58","59.4","57.8","94.3","29.85","13","0","1.2","0.00","0.00"
"23:19:57","59.4","57.7","94","29.84","13","0","0","0.00","0.00"
"23:24:59","59.3","57.6","94","29.84","11","0.7","2.4","0.00","0.00"
"23:29:58","59","57","93","29.85","9","1.2","2.4","0.00","0.00"
"23:34:56","58.7","57","94","29.85","5","0.9","2.4","0.00","0.00"
"23:39:59","58.4","56.8","94.1","29.85","5","0.6","2.4","0.00","0.00"
"23:44:58","58.3","56.8","94.8","29.85","5","0.4","2.4","0.00","0.00"
"23:49:56","58","56.4","94.2","29.85","10","0.8","3.6","0.00","0.00"
"23:54:58","58.1","56.8","95.2","29.85","11","0.9","2.4","0.00","0.00"
